#timestamp,LO_Frequency,Hit,StdDev 
1645524015.2,286047000.3,P
1645524035.1,286047000.9,N
1645524036.0,286047000.9,N
1645524055.8,286047001.2,N
1645524075.7,286046999.6,N
1645524095.5,286046996.8,Y
1645524115.3,286046997.6,P
1645524135.2,286046997.4,N
1645524155.0,286046997.1,N
1645524155.9,286046997.1,N
1645524175.7,286046997.8,N
1645524195.6,286046995.7,Y
1645524215.4,286046996.5,P
1645524235.3,286046998.4,N
1645524255.1,286046999.1,N
1645524275.8,286046996.5,Y
1645524295.7,286047000.5,P
1645524315.5,286046999.7,N
1645524335.4,286046999.7,N
1645524355.2,286047001.3,N
1645524375.0,286047003.7,Y
1645524375.9,286047003.7,P
1645524395.8,286047003.9,N
1645524415.6,286047002.1,N
1645524435.4,286047002.5,N
1645524455.3,286047001.7,N
1645524475.1,286047001.4,N
1645524495.9,286047002.3,N
1645524515.7,286046999.9,N
1645524535.5,286047000.6,N
1645524555.4,286047000.4,N
1645524575.2,286047000.8,N
1645524595.0,286047000.6,N
1645524595.9,286047000.6,N
1645524615.8,286047000.9,N
1645524635.6,286046999.9,N
1645524655.5,286047000.6,N
1645524675.3,286047000.8,N
1645524695.1,286046998.3,N
1645524715.9,286046999.6,N
1645524735.7,286046996.6,N
1645524755.6,286046999.2,N
1645524775.4,286046996.9,N
1645524795.2,286046996.7,N
1645524815.1,286046998.8,N
1645524816.0,286046998.8,N
1645524835.8,286046998.2,N
1645524855.6,286047000.0,N
1645524875.5,286047000.1,N
1645524895.3,286047002.7,N
1645524915.2,286047002.8,N
1645524935.9,286046999.7,N
1645524955.7,286047002.7,N
1645524975.6,286047002.8,N
1645524995.4,286047002.0,N
1645525015.2,286047002.4,N
1645525035.1,286046999.8,N
1645525036.0,286046999.8,N
1645525055.8,286047000.3,N
1645525075.7,286047000.9,N
1645525095.5,286047002.8,N
1645525115.3,286046999.3,N
1645525135.2,286047001.2,N
1645525155.0,286047000.5,N
1645525155.9,286047000.5,N
1645525175.8,286046999.9,N
1645525195.6,286046998.2,N
1645525215.4,286047001.2,N
1645525235.3,286046998.1,N
1645525255.1,286047000.2,N
1645525275.8,286047002.7,N
1645525295.7,286047001.7,N
1645525315.5,286046999.7,N
1645525335.4,286047002.0,N
1645525355.2,286047002.8,N
1645525375.0,286047001.0,N
1645525375.9,286047001.0,N
1645525395.8,286047000.6,N
1645525415.6,286047002.7,N
1645525435.4,286047002.6,N
1645525455.3,286047002.1,N
1645525475.1,286047002.3,N
1645525495.9,286047002.3,N
1645525515.7,286047000.5,N
1645525535.5,286046999.0,N
1645525555.4,286047002.6,N
1645525575.2,286046999.7,N
1645525595.1,286046999.7,N
1645525596.0,286046999.7,N
1645525615.8,286047000.9,N
1645525635.6,286047000.6,N
1645525655.5,286047001.3,N
1645525675.3,286047003.9,N
1645525695.1,286047005.5,Y
1645525715.9,286047004.1,P
1645525735.7,286047003.2,N
1645525755.6,286047002.1,N
1645525775.4,286047000.9,N
1645525795.2,286047001.2,N
1645525815.1,286046997.7,N
1645525816.0,286046997.7,N
1645525835.8,286046997.1,N
1645525855.7,286046997.0,N
1645525875.5,286046999.1,N
1645525895.3,286046999.5,N
1645525915.2,286046999.0,N
1645525935.9,286046996.5,N
1645525955.7,286046998.4,N
1645525975.6,286046999.0,N
1645525995.4,286046998.8,N
1645526015.3,286046996.6,N
1645526035.1,286046999.3,N
1645526036.0,286046999.3,N
1645526055.8,286046998.6,N
1645526075.7,286046998.2,N
1645526095.5,286046998.4,N
1645526115.3,286046999.3,N
1645526135.2,286046996.6,N
1645526155.0,286046999.6,N
1645526155.9,286046999.6,N
1645526175.8,286046999.2,N
1645526195.6,286046999.4,N
1645526215.4,286046997.0,N
1645526235.3,286046996.8,N
1645526255.1,286046998.4,N
1645526275.8,286046999.2,N
1645526295.7,286047000.8,N
1645526315.5,286046998.2,N
1645526335.4,286047001.0,N
1645526355.2,286047001.1,N
1645526375.0,286046998.2,N
1645526375.9,286046998.2,N
1645526395.8,286046998.5,N
1645526415.6,286046997.8,N
1645526435.5,286046994.9,Y
1645526455.3,286046996.5,P
1645526475.1,286046998.8,N
1645526495.9,286046997.1,N
1645526515.7,286046999.3,N
1645526535.5,286046999.3,N
1645526555.4,286047000.8,N
1645526575.2,286046998.5,N
1645526595.1,286046996.6,N
1645526596.0,286046996.6,N
1645526615.8,286046996.8,N
1645526635.6,286046998.8,N
1645526655.5,286046999.3,N
1645526675.3,286047001.2,N
1645526695.1,286047000.4,N
1645526715.9,286046998.5,N
1645526735.7,286046998.2,N
1645526755.6,286047001.0,N
1645526775.4,286046999.3,N
1645526795.2,286046998.5,N
1645526815.1,286047001.2,N
1645526816.0,286047001.2,N
1645526835.8,286046998.2,N
1645526855.7,286046998.9,N
1645526875.5,286046998.3,N
1645526895.3,286047001.2,N
1645526915.2,286046998.4,N
1645526935.0,286046999.1,N
1645526935.9,286046999.1,N
1645526955.7,286046998.1,N
1645526975.6,286047001.1,N
1645526995.4,286046999.0,N
1645527015.3,286046999.4,N
1645527035.1,286046998.8,N
1645527036.0,286046998.8,N
1645527055.8,286046998.4,N
1645527075.7,286046998.7,N
1645527095.5,286046998.9,N
1645527115.3,286046997.1,N
1645527135.2,286046997.7,N
1645527155.0,286046997.5,N
1645527155.9,286046997.5,N
1645527175.8,286046997.2,N
1645527195.6,286046998.9,N
1645527215.4,286046998.7,N
1645527235.3,286046998.8,N
1645527255.1,286046997.4,N
1645527275.9,286046999.5,N
1645527295.7,286046999.1,N
1645527315.5,286046999.6,N
1645527335.4,286046999.3,N
1645527355.2,286046998.9,N
1645527375.0,286046999.4,N
1645527375.9,286046999.4,N
1645527395.8,286046996.6,Y
1645527415.6,286047001.1,P
1645527435.5,286046998.1,N
1645527455.3,286047000.3,N
1645527475.1,286047000.7,N
1645527495.9,286046998.1,N
1645527515.7,286046998.4,N
1645527535.5,286046998.7,N
1645527555.4,286047000.5,N
1645527575.2,286047000.1,N
1645527595.1,286047000.8,N
1645527596.0,286047000.8,N
